Weather History for KSRR - June, 2013

Change the Weather History Date:

Monday, June 10, 2013

  Actual Average Record
Temperature  
Mean Temperature 73 °F -  
Max Temperature 86 °F 78 °F 89 °F (2001)
Min Temperature 60 °F 53 °F 46 °F (2014)
Cooling Degree Days 8    
Growing Degree Days 23 (Base 50)    
Moisture  
Dew Point 39 °F    
Average Humidity 29    
Maximum Humidity 52    
Minimum Humidity 18    
Precipitation  
Precipitation 0.00 in - - ()
Sea Level Pressure  
Sea Level Pressure 30.25 in    
Wind  
Wind Speed 7 mph (SSE)    
Max Wind Speed 16 mph    
Max Gust Speed 23 mph    
Visibility 10 miles    
Events Thunderstorm    
Averages and records for this station are not official NWS values.
T = Trace of Precipitation, MM = Missing Value Source: NWS Daily Summary

Daily Weather History Graph

Daily Weather History Graph

Search for Another Location

Airport or City:

Trip Planner

Search our weather history database for the weather conditions in past years. The results will help you decide how hot, cold, wet, or windy it might be!

Date:

Astronomy

Jun. 10, 2013 Rise Set
Actual Time 5:51 AM MDT 8:11 PM MDT
Civil Twilight 5:22 AM MDT 8:40 PM MDT
Nautical Twilight 4:47 AM MDT 9:15 PM MDT
Astronomical Twilight 4:09 AM MDT 9:54 PM MDT
Moon 7:38 AM MDT (6/10) 9:45 PM MDT (6/10)
Length of Visible Light 15h 17m
Length of Day
14h 19m
Waxing Crescent, 4% of the Moon is Illuminated
Jun 10
Waxing Crescent
Jun 16
First Quarter
Jun 23
Full
Jun 29
Last Quarter
Jul 8
New

Hourly Weather History & Observations

Time (MDT) Temp. Dew Point Humidity Pressure Visibility Wind Dir Wind Speed Gust Speed Precip Events Conditions
12:15 AM 66.2 °F 44.6 °F 46% 30.27 in 10.0 mi South 8.1 mph - N/A   Clear
12:35 AM 66.2 °F 44.6 °F 46% 30.27 in 10.0 mi SSE 5.8 mph - N/A   Clear
12:55 AM 66.2 °F 44.6 °F 46% 30.27 in 10.0 mi North 4.6 mph - N/A   Clear
1:15 AM 66.2 °F 44.6 °F 46% 30.27 in 10.0 mi Calm Calm - N/A   Clear
1:35 AM 66.2 °F 44.6 °F 46% 30.26 in 10.0 mi Calm Calm - N/A   Clear
1:55 AM 64.4 °F 44.6 °F 49% 30.25 in 10.0 mi East 4.6 mph - N/A   Clear
2:15 AM 64.4 °F 44.6 °F 49% 30.25 in 10.0 mi ESE 3.5 mph - N/A   Clear
2:35 AM 64.4 °F 44.6 °F 49% 30.25 in 10.0 mi ESE 5.8 mph - N/A   Clear
2:55 AM 64.4 °F 44.6 °F 49% 30.24 in 10.0 mi ESE 3.5 mph - N/A   Clear
3:15 AM 64.4 °F 44.6 °F 49% 30.24 in 10.0 mi South 3.5 mph - N/A   Clear
3:35 AM 62.6 °F 44.6 °F 52% 30.23 in 10.0 mi SSW 3.5 mph - N/A   Clear
3:55 AM 62.6 °F 44.6 °F 52% 30.24 in 10.0 mi West 6.9 mph - N/A   Clear
4:15 AM 62.6 °F 42.8 °F 48% 30.24 in 10.0 mi WSW 4.6 mph - N/A   Clear
4:35 AM 60.8 °F 41.0 °F 48% 30.24 in 10.0 mi SW 8.1 mph - N/A   Clear
4:55 AM 60.8 °F 41.0 °F 48% 30.23 in 10.0 mi SW 8.1 mph - N/A   Clear
5:15 AM 60.8 °F 41.0 °F 48% 30.24 in 10.0 mi WSW 5.8 mph - N/A   Clear
5:35 AM 62.6 °F 41.0 °F 45% 30.24 in 10.0 mi NW 5.8 mph - N/A   Clear
5:55 AM 62.6 °F 41.0 °F 45% 30.25 in 10.0 mi West 8.1 mph - N/A   Clear
6:15 AM 64.4 °F 41.0 °F 42% 30.25 in 10.0 mi West 8.1 mph - N/A   Clear
6:35 AM 66.2 °F 41.0 °F 40% 30.25 in 10.0 mi WNW 4.6 mph - N/A   Clear
6:55 AM 68.0 °F 42.8 °F 40% 30.25 in 10.0 mi WNW 4.6 mph - N/A   Clear
7:15 AM 69.8 °F 42.8 °F 38% 30.26 in 10.0 mi Calm Calm - N/A   Clear
7:35 AM 71.6 °F 41.0 °F 33% 30.26 in 10.0 mi North 4.6 mph - N/A   Clear
7:55 AM 73.4 °F 41.0 °F 31% 30.27 in 10.0 mi WNW 9.2 mph - N/A   Clear
8:15 AM 75.2 °F 41.0 °F 29% 30.27 in 10.0 mi NW 5.8 mph - N/A   Clear
8:35 AM 75.2 °F 42.8 °F 31% 30.27 in 10.0 mi NNE 4.6 mph - N/A   Clear
8:55 AM 77.0 °F 42.8 °F 29% 30.28 in 10.0 mi NE 5.8 mph - N/A   Clear
9:15 AM 78.8 °F 41.0 °F 26% 30.28 in 10.0 mi NNE 3.5 mph - N/A   Clear
9:35 AM 80.6 °F 41.0 °F 24% 30.27 in 10.0 mi North 5.8 mph - N/A   Clear
9:55 AM 82.4 °F 39.2 °F 21% 30.27 in 10.0 mi NNE 8.1 mph - N/A   Clear
10:15 AM 82.4 °F 39.2 °F 21% 30.27 in 10.0 mi North 8.1 mph - N/A   Clear
10:35 AM 84.2 °F 37.4 °F 19% 30.27 in 10.0 mi NE 8.1 mph - N/A   Clear
10:55 AM 84.2 °F 39.2 °F 20% 30.27 in 10.0 mi SE 16.1 mph 21.9 mph N/A   Clear
11:15 AM 84.2 °F 41.0 °F 22% 30.27 in 10.0 mi SE 15.0 mph 20.7 mph N/A   Clear
11:35 AM 84.2 °F 41.0 °F 22% 30.28 in 10.0 mi ESE 10.4 mph 18.4 mph N/A   Clear
11:55 AM 86.0 °F 41.0 °F 20% 30.27 in 10.0 mi ESE 13.8 mph 20.7 mph N/A   Clear
12:15 PM 86.0 °F 39.2 °F 19% 30.27 in 10.0 mi SE 8.1 mph 19.6 mph N/A   Clear
12:35 PM 86.0 °F 39.2 °F 19% 30.26 in 10.0 mi ESE 12.7 mph 18.4 mph N/A   Clear
12:55 PM 86.0 °F 39.2 °F 19% 30.26 in 10.0 mi ESE 12.7 mph 20.7 mph N/A   Clear
1:15 PM 84.2 °F 37.4 °F 19% 30.26 in 10.0 mi SSE 10.4 mph - N/A   Partly Cloudy
1:35 PM 82.4 °F 37.4 °F 20% 30.27 in 10.0 mi WNW 11.5 mph - N/A   Mostly Cloudy
1:55 PM 80.6 °F 39.2 °F 23% 30.26 in 10.0 mi WNW 5.8 mph - N/A   Mostly Cloudy
2:15 PM 80.6 °F 37.4 °F 21% 30.27 in 10.0 mi SW 10.4 mph - N/A   Partly Cloudy
2:35 PM 80.6 °F 39.2 °F 23% 30.26 in 10.0 mi WSW 6.9 mph - N/A Thunderstorm Clear
2:55 PM 80.6 °F 37.4 °F 21% 30.25 in 10.0 mi WSW 8.1 mph - N/A   Clear
3:15 PM 80.6 °F 37.4 °F 21% 30.25 in 10.0 mi West 10.4 mph - N/A   Clear
3:35 PM 82.4 °F 35.6 °F 19% 30.25 in 10.0 mi WSW 5.8 mph - N/A   Clear
3:55 PM 82.4 °F 37.4 °F 20% 30.24 in 10.0 mi SW 6.9 mph - N/A   Clear
4:15 PM 82.4 °F 35.6 °F 19% 30.23 in 10.0 mi South 5.8 mph - N/A   Clear
4:35 PM 84.2 °F 35.6 °F 18% 30.22 in 10.0 mi South 5.8 mph - N/A   Clear
4:55 PM 84.2 °F 35.6 °F 18% 30.22 in 10.0 mi SE 8.1 mph - N/A   Clear
5:15 PM 84.2 °F 35.6 °F 18% 30.21 in 10.0 mi SSE 9.2 mph - N/A   Clear
5:35 PM 84.2 °F 35.6 °F 18% 30.21 in 10.0 mi SE 12.7 mph 18.4 mph N/A   Clear
5:55 PM 84.2 °F 35.6 °F 18% 30.21 in 10.0 mi South 15.0 mph 18.4 mph N/A   Clear
6:15 PM 84.2 °F 35.6 °F 18% 30.20 in 10.0 mi South 11.5 mph 19.6 mph N/A   Clear
6:35 PM 84.2 °F 35.6 °F 18% 30.20 in 10.0 mi SSE 10.4 mph - N/A   Clear
6:55 PM 84.2 °F 37.4 °F 19% 30.20 in 10.0 mi SSE 12.7 mph - N/A   Clear
7:15 PM 82.4 °F 37.4 °F 20% 30.20 in 10.0 mi SSE 13.8 mph - N/A   Clear
7:35 PM 82.4 °F 37.4 °F 20% 30.20 in 10.0 mi SSE 12.7 mph - N/A   Clear
7:55 PM 80.6 °F 35.6 °F 20% 30.20 in 10.0 mi SSE 8.1 mph - N/A   Clear
8:15 PM 77.0 °F 35.6 °F 22% 30.21 in 10.0 mi SSE 8.1 mph - N/A   Clear
8:35 PM 75.2 °F 35.6 °F 24% 30.22 in 10.0 mi SE 9.2 mph - N/A   Clear
8:55 PM 77.0 °F 35.6 °F 22% 30.22 in 10.0 mi SE 15.0 mph 23.0 mph N/A   Clear
9:15 PM 77.0 °F 33.8 °F 21% 30.23 in 10.0 mi SSE 13.8 mph - N/A   Clear
9:35 PM 75.2 °F 33.8 °F 22% 30.24 in 10.0 mi SSE 12.7 mph - N/A   Clear
9:55 PM 75.2 °F 32.0 °F 21% 30.25 in 10.0 mi SSE 11.5 mph - N/A   Clear
10:15 PM 73.4 °F 32.0 °F 22% 30.26 in 10.0 mi ESE 9.2 mph - N/A   Clear
10:35 PM 73.4 °F 32.0 °F 22% 30.26 in 10.0 mi SE 8.1 mph 16.1 mph N/A   Clear
10:55 PM 71.6 °F 32.0 °F 23% 30.27 in 10.0 mi SSE 5.8 mph - N/A   Clear
11:15 PM 69.8 °F 32.0 °F 25% 30.27 in 10.0 mi SE 8.1 mph - N/A   Clear
11:35 PM 69.8 °F 32.0 °F 25% 30.27 in 10.0 mi SE 3.5 mph - N/A   Clear
11:55 PM 69.8 °F 32.0 °F 25% 30.27 in 10.0 mi Calm Calm - N/A   Clear